SP1GDK-10 Weather Reports


time (UTC)temp
C
wind
direction
speed
KPH
gust
KPH
rain 1hr
cm
rain 24hr
cm
rain mn
cm
humidity
%
barometer
mb
20260504235913 11 0.0 0.0 0.00 0.00 0.00 10 1013.5
20260504234912 11 0.0 0.0 0.00 0.00 0.00 10 1013.5
20260504232914 11 0.0 0.0 0.00 0.00 0.00 10 1013.6
20260504231919 11 0.0 0.0 0.00 0.00 0.00 10 1013.7
20260504230916 12 0.0 0.0 0.00 0.00 0.00 10 1013.7
20260504225918 12 0.0 0.0 0.00 0.00 0.00 10 1013.8
20260504224916 12 0.0 0.0 0.00 0.00 0.00 10 1013.9
20260504223913 12 0.0 0.0 0.00 0.00 0.00 10 1013.9
20260504222914 12 0.0 0.0 0.00 0.00 0.00 10 1013.8
20260504221913 12 0.0 0.0 0.00 0.00 0.00 10 1013.8
20260504215932 12 0.0 0.0 0.00 0.00 0.00 10 1013.8
20260504212915 12 0.0 0.0 0.00 0.00 0.00 10 1014.0
20260504211914 13 0.0 0.0 0.00 0.00 0.00 10 1014.0
20260504210913 13 0.0 0.0 0.00 0.00 0.00 10 1013.9
20260504205919 13 0.0 0.0 0.00 0.00 0.00 10 1014.0
20260504204918 13 0.0 0.0 0.00 0.00 0.00 10 1014.1
20260504203916 13 0.0 0.0 0.00 0.00 0.00 10 1014.0
20260504202914 13 0.0 0.0 0.00 0.00 0.00 10 1014.0
20260504201913 13 0.0 0.0 0.00 0.00 0.00 10 1014.2
20260504200914 14 0.0 0.0 0.00 0.00 0.00 10 1014.1
20260504195915 14 0.0 0.0 0.00 0.00 0.00 10 1014.1
20260504194914 14 0.0 0.0 0.00 0.00 0.00 10 1014.0
20260504193912 14 0.0 0.0 0.00 0.00 0.00 10 1014.1
20260504192913 15 0.0 0.0 0.00 0.00 0.00 10 1014.0
20260504191926 15 0.0 0.0 0.00 0.00 0.00 10 1014.1
20260504190914 15 0.0 0.0 0.00 0.00 0.00 10 1014.0
20260504184916 15 0.0 0.0 0.00 0.00 0.00 10 1013.9
20260504183919 15 0.0 0.0 0.00 0.00 0.00 10 1013.8
20260504182918 16 0.0 0.0 0.00 0.00 0.00 10 1013.6
20260504181925 16 0.0 0.0 0.00 0.00 0.00 10 1013.5
20260504180914 16 0.0 0.0 0.00 0.00 0.00 10 1013.5
20260504175913 17 0.0 0.0 0.00 0.00 0.00 10 1013.4
20260504175813 17 0.0 0.0 0.00 0.00 0.00 10 1013.3
20260504175714 17 0.0 0.0 0.00 0.00 0.00 10 1013.3
20260504175613 16 0.0 0.0 0.00 0.00 0.00 10 1013.3
20260504175513 16 0.0 0.0 0.00 0.00 0.00 10 1013.3
20260504175416 17 0.0 0.0 0.00 0.00 0.00 10 1013.3
20260504171912 17 0.0 0.0 0.00 0.00 0.00 89 1013.1
20260504170919 17 0.0 0.0 0.00 0.00 0.00 86 1013.1
20260504140915 22 0.0 0.0 0.00 0.00 0.00 46 1012.7
20260504081915 20 0.0 0.0 0.00 0.00 0.00 69 1012.6
20260504080915 19 0.0 0.0 0.00 0.00 0.00 75 1012.6
20260504045919 17 0.0 0.0 0.00 0.00 0.00 66 1011.6
20260504044919 17 0.0 0.0 0.00 0.00 0.00 64 1011.5
20260504043915 17 0.0 0.0 0.00 0.00 0.00 64 1011.5
20260504042919 17 0.0 0.0 0.00 0.00 0.00 63 1011.4
20260504041918 16 0.0 0.0 0.00 0.00 0.00 64 1011.4
20260504040915 16 0.0 0.0 0.00 0.00 0.00 64 1011.5
20260504035915 16 0.0 0.0 0.00 0.00 0.00 64 1011.4
20260504034912 16 0.0 0.0 0.00 0.00 0.00 62 1011.5
20260504033911 16 0.0 0.0 0.00 0.00 0.00 61 1011.3
20260504031915 16 0.0 0.0 0.00 0.00 0.00 58 1011.3
20260504030916 16 0.0 0.0 0.00 0.00 0.00 56 1011.2
20260504025914 16 0.0 0.0 0.00 0.00 0.00 55 1011.1
20260504024912 17 0.0 0.0 0.00 0.00 0.00 54 1011.0
20260504023914 17 0.0 0.0 0.00 0.00 0.00 53 1011.1
20260504022917 17 0.0 0.0 0.00 0.00 0.00 52 1011.0
20260504021920 17 0.0 0.0 0.00 0.00 0.00 52 1011.0
20260504020927 17 0.0 0.0 0.00 0.00 0.00 51 1011.0
20260504015917 17 0.0 0.0 0.00 0.00 0.00 51 1010.9
20260504014914 17 0.0 0.0 0.00 0.00 0.00 50 1010.9
20260504013913 17 0.0 0.0 0.00 0.00 0.00 50 1010.8
20260504012918 17 0.0 0.0 0.00 0.00 0.00 50 1010.8
20260504005922 17 0.0 0.0 0.00 0.00 0.00 49 1010.4
20260504004913 18 0.0 0.0 0.00 0.00 0.00 48 1010.6
20260504003919 18 0.0 0.0 0.00 0.00 0.00 48 1010.5
20260504002914 18 0.0 0.0 0.00 0.00 0.00 48 1010.5
20260504001913 18 0.0 0.0 0.00 0.00 0.00 49 1010.5
20260504000914 18 0.0 0.0 0.00 0.00 0.00 49 1010.5